Location: *
(12.5665°N, 8.3471°E)
Time: 23:59:28
(UTC+00:00)

Lacrosse 5 - Pass Details

Date: 23 September 2019
Orbit: 715 x 724 km, 57.0° (Epoch: 08 October)

Event Time Altitude Azimuth Distance (km) Brightness Sun altitude
Rises 04:40:54 0° 338° (NNW) 3,111 4.9 -9.3°
Reaches altitude 10° 04:43:21 10° 344° (NNW) 2,192 4.2 -8.7°
Maximum altitude 04:48:12 47° 58° (ENE) 941 3.0 -7.6°
Drops below altitude 10° 04:53:04 10° 132° (SE) 2,197 5.1 -6.4°
Sets 04:55:31 0° 137° (SE) 3,119 5.8 -5.8°
